Weather History for Milford, UT

Change the Weather History Date:

Friday, November 2, 2012

  Actual Average Record
Temperature  
Mean Temperature 46 °F -  
Max Temperature 63 °F 53 °F 69 °F (1999)
Min Temperature 28 °F 25 °F 12 °F (2002)
Degree Days  
Heating Degree Days 20    
Moisture  
Dew Point 24 °F    
Average Humidity 42    
Maximum Humidity 64    
Minimum Humidity 17    
Precipitation  
Precipitation 0.00 in - - ()
Sea Level Pressure  
Sea Level Pressure 30.05 in    
Wind  
Wind Speed 7 mph (NW)    
Max Wind Speed 12 mph    
Max Gust Speed -    
Visibility 10 miles    
Events      
Averages and records for this station are not official NWS values.
T = Trace of Precipitation, MM = Missing Value Source: NWS Daily Summary

Daily Weather History Graph

Daily Weather History Graph

Search for Another Location

Airport:

Trip Planner

Search our weather history database for the weather conditions in past years. The results will help you decide how hot, cold, wet, or windy it might be!

Date:

Astronomy

Nov. 02, 2012 Rise Set
Actual Time 8:00 AM MDT 6:30 PM MDT
Civil Twilight 7:32 AM MDT 6:58 PM MDT
Nautical Twilight 7:01 AM MDT 7:29 PM MDT
Astronomical Twilight 6:30 AM MDT 8:00 PM MDT
Moon 9:22 PM MDT (11/2) 11:21 AM MDT (11/2)
Length of Visible Light 11h 25m
Length of Day
10h 30m
Waning Gibbous, 87% of the Moon is Illuminated
Nov 2
Waning Gibbous
Nov 6
Last Quarter
Nov 13
New
Nov 20
First Quarter
Nov 28
Full

Hourly Weather History & Observations

Time (MDT) Temp. Windchill Dew Point Humidity Pressure Visibility Wind Dir Wind Speed Gust Speed Precip Events Conditions
12:52 AM 42.1 °F 36.6 °F 19.9 °F 41% 29.97 in 10.0 mi SSW 9.2 mph - N/A   Clear
1:52 AM 39.0 °F 36.8 °F 21.0 °F 49% 29.99 in 10.0 mi ESE 3.5 mph - N/A   Clear
2:52 AM 36.0 °F 30.3 °F 19.9 °F 52% 30.00 in 10.0 mi WSW 6.9 mph - N/A   Clear
3:52 AM 42.1 °F 38.4 °F 19.0 °F 40% 29.97 in 10.0 mi West 5.8 mph - N/A   Clear
4:52 AM 33.1 °F 26.1 °F 19.0 °F 56% 30.00 in 10.0 mi SSW 8.1 mph - N/A   Clear
5:52 AM 32.0 °F 27.5 °F 19.9 °F 61% 30.02 in 10.0 mi SSW 4.6 mph - N/A   Clear
6:52 AM 33.1 °F 27.7 °F 19.9 °F 59% 30.05 in 10.0 mi WSW 5.8 mph - N/A   Clear
7:52 AM 30.9 °F - 19.9 °F 64% 30.09 in 10.0 mi Calm Calm - N/A   Clear
8:52 AM 36.0 °F 29.0 °F 23.0 °F 59% 30.09 in 10.0 mi West 9.2 mph - N/A   Clear
9:52 AM 43.0 °F - 24.1 °F 47% 30.12 in 10.0 mi Calm Calm - N/A   Clear
10:52 AM 52.0 °F - 26.1 °F 37% 30.10 in 10.0 mi North 6.9 mph - N/A   Clear
11:52 AM 57.0 °F - 26.1 °F 30% 30.07 in 10.0 mi North 9.2 mph - N/A   Clear
12:52 PM 60.1 °F - 28.0 °F 30% 30.05 in 10.0 mi North 10.4 mph - N/A   Clear
1:52 PM 61.0 °F - 26.1 °F 26% 30.03 in 10.0 mi North 9.2 mph - N/A   Clear
2:52 PM 62.1 °F - 28.0 °F 28% 30.02 in 10.0 mi North 11.5 mph - N/A   Clear
3:52 PM 62.1 °F - 26.1 °F 25% 29.99 in 10.0 mi North 8.1 mph - N/A   Clear
4:52 PM 63.0 °F - 27.0 °F 26% 30.00 in 10.0 mi North 10.4 mph - N/A   Clear
5:52 PM 60.1 °F - 27.0 °F 28% 30.01 in 10.0 mi North 11.5 mph - N/A   Clear
6:52 PM 48.9 °F - 26.1 °F 41% 30.06 in 10.0 mi North 9.2 mph - N/A   Clear
7:52 PM 44.1 °F 39.5 °F 25.0 °F 47% 30.10 in 10.0 mi NNE 8.1 mph - N/A   Clear
8:52 PM 42.1 °F 39.2 °F 24.1 °F 49% 30.10 in 10.0 mi NNW 4.6 mph - N/A   Clear
9:52 PM 42.1 °F 39.2 °F 24.1 °F 49% 30.09 in 10.0 mi West 4.6 mph - N/A   Clear
10:52 PM 39.9 °F 37.8 °F 24.1 °F 53% 30.10 in 10.0 mi NW 3.5 mph - N/A   Clear
11:52 PM 35.1 °F - 23.0 °F 61% 30.10 in 10.0 mi Calm Calm - N/A   Clear